Time,TemperatureF,DewpointF,PressureIn,WindDirection,WindDirectionDegrees,WindSpeedMPH,WindSpeedGustMPH,Humidity,HourlyPrecipIn,Conditions,Clouds,dailyrainin,SoftwareType,DateUTC
2013-02-03 00:00:00,46.4,24.6,30.45,West,274,7.0,16.0,42,0.00,,,0.00,meteohub,2013-02-03 06:00:00,
2013-02-03 00:05:00,46.2,25.0,30.45,West,281,6.0,13.0,43,0.00,,,0.00,meteohub,2013-02-03 06:05:00,
2013-02-03 00:10:00,45.9,24.6,30.45,WNW,282,8.0,13.0,43,0.00,,,0.00,meteohub,2013-02-03 06:10:00,
2013-02-03 00:15:00,45.5,24.8,30.45,West,275,8.0,11.0,44,0.00,,,0.00,meteohub,2013-02-03 06:15:00,
2013-02-03 00:20:00,45.1,24.4,30.45,NW,304,8.0,11.0,44,0.00,,,0.00,meteohub,2013-02-03 06:20:00,
2013-02-03 00:25:00,45.1,24.4,30.45,West,278,9.0,14.0,44,0.00,,,0.00,meteohub,2013-02-03 06:25:00,
2013-02-03 00:30:00,45.1,24.4,30.45,WNW,285,11.0,14.0,44,0.00,,,0.00,meteohub,2013-02-03 06:30:00,
2013-02-03 00:35:00,45.5,24.3,30.45,WNW,288,8.0,15.0,43,0.00,,,0.00,meteohub,2013-02-03 06:35:00,
2013-02-03 00:40:00,45.5,24.3,30.46,WNW,287,8.0,16.0,43,0.00,,,0.00,meteohub,2013-02-03 06:40:00,
2013-02-03 00:45:00,45.3,24.1,30.46,West,278,11.0,16.0,43,0.00,,,0.00,meteohub,2013-02-03 06:45:00,
2013-02-03 00:50:00,45.1,24.4,30.46,WNW,294,6.0,16.0,44,0.00,,,0.00,meteohub,2013-02-03 06:50:00,
2013-02-03 00:55:00,45.3,24.1,30.46,NW,304,5.0,14.0,43,0.00,,,0.00,meteohub,2013-02-03 06:55:00,
2013-02-03 01:00:00,45.0,24.4,30.46,West,281,5.0,14.0,44,0.00,,,0.00,meteohub,2013-02-03 07:00:00,
2013-02-03 01:05:00,44.6,24.1,30.46,WNW,295,7.0,14.0,44,0.00,,,0.00,meteohub,2013-02-03 07:05:00,
2013-02-03 01:10:00,44.2,24.3,30.46,WNW,284,8.0,11.0,45,0.00,,,0.00,meteohub,2013-02-03 07:10:00,
2013-02-03 01:15:00,44.1,24.1,30.46,WNW,295,9.0,11.0,45,0.00,,,0.00,meteohub,2013-02-03 07:15:00,
2013-02-03 01:20:00,44.1,24.1,30.46,WNW,300,8.0,13.0,45,0.00,,,0.00,meteohub,2013-02-03 07:20:00,
2013-02-03 01:25:00,44.1,24.1,30.46,WNW,296,11.0,14.0,45,0.00,,,0.00,meteohub,2013-02-03 07:25:00,
2013-02-03 01:30:00,43.9,23.9,30.46,NW,307,7.0,14.0,45,0.00,,,0.00,meteohub,2013-02-03 07:30:00,
2013-02-03 01:35:00,43.3,23.9,30.46,NW,313,5.0,14.0,46,0.00,,,0.00,meteohub,2013-02-03 07:35:00,
2013-02-03 01:40:00,43.0,24.1,30.46,NW,323,4.0,12.0,47,0.00,,,0.00,meteohub,2013-02-03 07:40:00,
2013-02-03 01:45:00,42.8,23.9,30.46,WNW,301,8.0,12.0,47,0.00,,,0.00,meteohub,2013-02-03 07:45:00,
2013-02-03 01:50:00,42.4,24.1,30.47,NW,307,6.0,12.0,48,0.00,,,0.00,meteohub,2013-02-03 07:50:00,
2013-02-03 01:55:00,42.3,24.4,30.46,WNW,296,7.0,12.0,49,0.00,,,0.00,meteohub,2013-02-03 07:55:00,
2013-02-03 02:00:00,42.1,24.3,30.46,NW,321,4.0,10.0,49,0.00,,,0.00,meteohub,2013-02-03 08:00:00,
2013-02-03 02:05:00,42.3,23.9,30.46,NW,316,12.0,12.0,48,0.00,,,0.00,meteohub,2013-02-03 08:05:00,
2013-02-03 02:10:00,42.6,24.3,30.46,WNW,293,7.0,13.0,48,0.00,,,0.00,meteohub,2013-02-03 08:10:00,
2013-02-03 02:15:00,43.0,24.1,30.46,NW,314,8.0,13.0,47,0.00,,,0.00,meteohub,2013-02-03 08:15:00,
2013-02-03 02:20:00,43.0,24.1,30.46,NW,307,7.0,14.0,47,0.00,,,0.00,meteohub,2013-02-03 08:20:00,
2013-02-03 02:25:00,42.4,24.1,30.46,NW,321,7.0,14.0,48,0.00,,,0.00,meteohub,2013-02-03 08:25:00,
2013-02-03 02:30:00,42.3,24.4,30.46,NW,312,9.0,14.0,49,0.00,,,0.00,meteohub,2013-02-03 08:30:00,
2013-02-03 02:35:00,41.7,24.4,30.46,NW,326,4.0,11.0,50,0.00,,,0.00,meteohub,2013-02-03 08:35:00,
2013-02-03 02:40:00,41.4,24.1,30.46,WNW,294,5.0,11.0,50,0.00,,,0.00,meteohub,2013-02-03 08:40:00,
2013-02-03 02:45:00,40.8,24.1,30.46,NW,321,5.0,10.0,51,0.00,,,0.00,meteohub,2013-02-03 08:45:00,
2013-02-03 02:50:00,40.6,24.4,30.46,NW,304,6.0,10.0,52,0.00,,,0.00,meteohub,2013-02-03 08:50:00,
2013-02-03 02:55:00,40.5,24.3,30.46,NW,311,7.0,10.0,52,0.00,,,0.00,meteohub,2013-02-03 08:55:00,
2013-02-03 03:00:00,40.3,24.4,30.46,NW,314,4.0,10.0,53,0.00,,,0.00,meteohub,2013-02-03 09:00:00,
2013-02-03 03:05:00,40.3,24.4,30.46,WNW,301,4.0,10.0,53,0.00,,,0.00,meteohub,2013-02-03 09:05:00,
2013-02-03 03:10:00,40.3,24.4,30.46,WNW,297,4.0,10.0,53,0.00,,,0.00,meteohub,2013-02-03 09:10:00,
2013-02-03 03:15:00,39.9,24.3,30.46,WNW,295,4.0,9.0,53,0.00,,,0.00,meteohub,2013-02-03 09:15:00,
2013-02-03 03:20:00,39.4,24.1,30.46,NW,316,3.0,9.0,54,0.00,,,0.00,meteohub,2013-02-03 09:20:00,
2013-02-03 03:25:00,39.0,24.3,30.46,NNW,334,2.0,6.0,55,0.00,,,0.00,meteohub,2013-02-03 09:25:00,
2013-02-03 03:30:00,38.8,24.1,30.46,North,356,2.0,5.0,55,0.00,,,0.00,meteohub,2013-02-03 09:30:00,
2013-02-03 03:35:00,39.0,24.3,30.46,NNW,337,3.0,4.0,55,0.00,,,0.00,meteohub,2013-02-03 09:35:00,
2013-02-03 03:40:00,39.0,24.3,30.46,NW,317,3.0,5.0,55,0.00,,,0.00,meteohub,2013-02-03 09:40:00,
2013-02-03 03:45:00,38.8,24.1,30.45,NW,318,5.0,5.0,55,0.00,,,0.00,meteohub,2013-02-03 09:45:00,
2013-02-03 03:50:00,38.7,24.3,30.45,NW,316,2.0,5.0,56,0.00,,,0.00,meteohub,2013-02-03 09:50:00,
2013-02-03 03:55:00,38.5,24.1,30.45,NW,318,5.0,5.0,56,0.00,,,0.00,meteohub,2013-02-03 09:55:00,
2013-02-03 04:00:00,38.1,24.3,30.45,NNW,347,4.0,6.0,57,0.00,,,0.00,meteohub,2013-02-03 10:00:00,
2013-02-03 04:05:00,37.9,24.1,30.45,NW,317,4.0,7.0,57,0.00,,,0.00,meteohub,2013-02-03 10:05:00,
2013-02-03 04:10:00,37.6,24.1,30.45,NW,304,5.0,7.0,58,0.00,,,0.00,meteohub,2013-02-03 10:10:00,
2013-02-03 04:15:00,37.2,24.3,30.45,NW,323,2.0,7.0,59,0.00,,,0.00,meteohub,2013-02-03 10:15:00,
2013-02-03 04:20:00,37.0,24.1,30.45,NNW,345,5.0,8.0,59,0.00,,,0.00,meteohub,2013-02-03 10:20:00,
2013-02-03 04:25:00,36.9,24.3,30.44,NNW,348,5.0,8.0,60,0.00,,,0.00,meteohub,2013-02-03 10:25:00,
2013-02-03 04:30:00,36.9,24.3,30.44,NNW,346,4.0,8.0,60,0.00,,,0.00,meteohub,2013-02-03 10:30:00,
2013-02-03 04:35:00,36.9,24.3,30.45,NNW,334,4.0,8.0,60,0.00,,,0.00,meteohub,2013-02-03 10:35:00,
2013-02-03 04:40:00,36.7,24.1,30.45,NNW,343,6.0,8.0,60,0.00,,,0.00,meteohub,2013-02-03 10:40:00,
2013-02-03 04:45:00,36.7,24.1,30.45,NNW,344,4.0,8.0,60,0.00,,,0.00,meteohub,2013-02-03 10:45:00,
2013-02-03 04:50:00,36.7,24.4,30.46,North,349,6.0,7.0,61,0.00,,,0.00,meteohub,2013-02-03 10:50:00,
2013-02-03 04:55:00,36.7,24.4,30.46,NNW,337,4.0,7.0,61,0.00,,,0.00,meteohub,2013-02-03 10:55:00,
2013-02-03 05:01:00,36.7,24.4,30.46,NNW,332,4.0,7.0,61,0.00,,,0.00,meteohub,2013-02-03 11:01:00,
2013-02-03 05:06:00,36.3,24.1,30.46,NNW,339,2.0,7.0,61,0.00,,,0.00,meteohub,2013-02-03 11:06:00,
2013-02-03 05:11:00,36.3,24.6,30.46,NW,322,3.0,5.0,62,0.00,,,0.00,meteohub,2013-02-03 11:11:00,
2013-02-03 05:16:00,36.1,24.4,30.46,WNW,292,2.0,5.0,62,0.00,,,0.00,meteohub,2013-02-03 11:16:00,
2013-02-03 05:21:00,36.0,24.3,30.46,WNW,290,2.0,5.0,62,0.00,,,0.00,meteohub,2013-02-03 11:21:00,
2013-02-03 05:26:00,35.8,24.4,30.46,WNW,294,2.0,4.0,63,0.00,,,0.00,meteohub,2013-02-03 11:26:00,
2013-02-03 05:31:00,35.4,24.4,30.46,WNW,298,2.0,3.0,64,0.00,,,0.00,meteohub,2013-02-03 11:31:00,
2013-02-03 05:36:00,35.2,24.3,30.46,WNW,300,3.0,3.0,64,0.00,,,0.00,meteohub,2013-02-03 11:36:00,
2013-02-03 05:41:00,35.1,24.1,30.46,North,8,3.0,3.0,64,0.00,,,0.00,meteohub,2013-02-03 11:41:00,
2013-02-03 05:46:00,35.1,24.4,30.47,NNW,341,2.0,4.0,65,0.00,,,0.00,meteohub,2013-02-03 11:46:00,
2013-02-03 05:51:00,35.1,24.1,30.47,NW,318,1.0,4.0,64,0.00,,,0.00,meteohub,2013-02-03 11:51:00,
2013-02-03 05:56:00,34.9,24.3,30.47,WNW,293,1.0,4.0,65,0.00,,,0.00,meteohub,2013-02-03 11:56:00,
2013-02-03 06:01:00,34.5,23.9,30.47,West,270,1.0,3.0,65,0.00,,,0.00,meteohub,2013-02-03 12:01:00,
2013-02-03 06:06:00,34.3,24.1,30.47,WSW,252,1.0,2.0,66,0.00,,,0.00,meteohub,2013-02-03 12:06:00,
2013-02-03 06:11:00,34.0,24.3,30.48,West,260,0.0,2.0,67,0.00,,,0.00,meteohub,2013-02-03 12:11:00,
2013-02-03 06:16:00,33.6,24.6,30.48,West,260,1.0,2.0,69,0.00,,,0.00,meteohub,2013-02-03 12:16:00,
2013-02-03 06:21:00,33.6,24.3,30.47,WSW,257,2.0,2.0,68,0.00,,,0.00,meteohub,2013-02-03 12:21:00,
2013-02-03 06:26:00,33.4,24.1,30.47,West,274,2.0,2.0,68,0.00,,,0.00,meteohub,2013-02-03 12:26:00,
2013-02-03 06:31:00,33.6,24.3,30.47,West,274,1.0,2.0,68,0.00,,,0.00,meteohub,2013-02-03 12:31:00,
2013-02-03 06:36:00,34.0,24.3,30.47,West,276,1.0,2.0,67,0.00,,,0.00,meteohub,2013-02-03 12:36:00,
2013-02-03 06:41:00,33.8,24.1,30.47,West,276,1.0,2.0,67,0.00,,,0.00,meteohub,2013-02-03 12:41:00,
2013-02-03 06:46:00,33.4,23.7,30.47,West,276,1.0,1.0,67,0.00,,,0.00,meteohub,2013-02-03 12:46:00,
2013-02-03 06:51:00,33.3,23.9,30.47,West,275,0.0,1.0,68,0.00,,,0.00,meteohub,2013-02-03 12:51:00,
2013-02-03 06:56:00,32.7,23.7,30.47,West,276,0.0,1.0,69,0.00,,,0.00,meteohub,2013-02-03 12:56:00,
2013-02-03 07:01:00,32.7,24.1,30.47,West,276,1.0,1.0,70,0.00,,,0.00,meteohub,2013-02-03 13:01:00,
2013-02-03 07:06:00,32.7,23.7,30.47,West,275,1.0,1.0,69,0.00,,,0.00,meteohub,2013-02-03 13:06:00,
2013-02-03 07:11:00,33.1,24.1,30.47,WNW,297,2.0,2.0,69,0.00,,,0.00,meteohub,2013-02-03 13:11:00,
2013-02-03 07:16:00,33.4,24.4,30.47,WNW,298,2.0,2.0,69,0.00,,,0.00,meteohub,2013-02-03 13:16:00,
2013-02-03 07:21:00,33.4,24.1,30.47,NW,323,2.0,3.0,68,0.00,,,0.00,meteohub,2013-02-03 13:21:00,
2013-02-03 07:26:00,33.6,24.3,30.47,North,4,2.0,3.0,68,0.00,,,0.00,meteohub,2013-02-03 13:26:00,
2013-02-03 07:31:00,34.0,24.6,30.47,NNE,17,3.0,4.0,68,0.00,,,0.00,meteohub,2013-02-03 13:31:00,
2013-02-03 07:36:00,34.2,24.4,30.47,NE,37,3.0,4.0,67,0.00,,,0.00,meteohub,2013-02-03 13:36:00,
2013-02-03 07:41:00,34.2,24.4,30.48,NE,34,2.0,5.0,67,0.00,,,0.00,meteohub,2013-02-03 13:41:00,
2013-02-03 07:46:00,34.3,24.4,30.48,NNE,32,0.0,5.0,67,0.00,,,0.00,meteohub,2013-02-03 13:46:00,
2013-02-03 07:51:00,34.5,24.3,30.48,NNE,30,0.0,4.0,66,0.00,,,0.00,meteohub,2013-02-03 13:51:00,
2013-02-03 07:56:00,34.9,24.3,30.48,NNE,32,0.0,3.0,65,0.00,,,0.00,meteohub,2013-02-03 13:56:00,
2013-02-03 08:01:00,35.2,25.0,30.48,NNE,32,0.0,1.0,66,0.00,,,0.00,meteohub,2013-02-03 14:01:00,
2013-02-03 08:06:00,35.8,24.8,30.48,NNE,32,1.0,0.0,64,0.00,,,0.00,meteohub,2013-02-03 14:06:00,
2013-02-03 08:11:00,35.4,24.8,30.47,NE,56,2.0,2.0,65,0.00,,,0.00,meteohub,2013-02-03 14:11:00,
2013-02-03 08:16:00,35.4,24.4,30.47,ENE,71,1.0,2.0,64,0.00,,,0.00,meteohub,2013-02-03 14:16:00,
2013-02-03 08:21:00,36.0,25.0,30.47,ENE,75,0.0,2.0,64,0.00,,,0.00,meteohub,2013-02-03 14:21:00,
2013-02-03 08:26:00,37.0,25.7,30.47,ENE,75,0.0,2.0,63,0.00,,,0.00,meteohub,2013-02-03 14:26:00,
2013-02-03 08:31:00,38.8,26.6,30.47,ENE,75,0.0,2.0,61,0.00,,,0.00,meteohub,2013-02-03 14:31:00,
2013-02-03 08:36:00,40.5,26.4,30.47,ENE,75,0.0,1.0,57,0.00,,,0.00,meteohub,2013-02-03 14:36:00,
2013-02-03 08:41:00,40.6,26.2,30.47,ENE,75,0.0,1.0,56,0.00,,,0.00,meteohub,2013-02-03 14:41:00,
2013-02-03 08:46:00,39.2,25.2,30.47,East,80,2.0,2.0,57,0.00,,,0.00,meteohub,2013-02-03 14:46:00,
2013-02-03 08:51:00,38.5,25.9,30.47,East,89,3.0,4.0,60,0.00,,,0.00,meteohub,2013-02-03 14:51:00,
2013-02-03 08:56:00,38.5,26.2,30.47,ENE,70,5.0,7.0,61,0.00,,,0.00,meteohub,2013-02-03 14:56:00,
2013-02-03 09:01:00,38.5,25.9,30.47,East,82,2.0,7.0,60,0.00,,,0.00,meteohub,2013-02-03 15:01:00,
2013-02-03 09:06:00,38.7,26.1,30.47,East,79,3.0,7.0,60,0.00,,,0.00,meteohub,2013-02-03 15:06:00,
2013-02-03 09:11:00,38.8,25.7,30.47,East,86,4.0,7.0,59,0.00,,,0.00,meteohub,2013-02-03 15:11:00,
2013-02-03 09:16:00,39.0,25.5,30.47,ENE,73,5.0,6.0,58,0.00,,,0.00,meteohub,2013-02-03 15:16:00,
2013-02-03 09:21:00,39.4,25.9,30.47,East,97,3.0,9.0,58,0.00,,,0.00,meteohub,2013-02-03 15:21:00,
2013-02-03 09:26:00,39.6,25.5,30.47,East,89,8.0,9.0,57,0.00,,,0.00,meteohub,2013-02-03 15:26:00,
2013-02-03 09:31:00,39.7,25.3,30.46,East,99,6.0,10.0,56,0.00,,,0.00,meteohub,2013-02-03 15:31:00,
2013-02-03 09:36:00,40.1,25.7,30.46,East,81,9.0,10.0,56,0.00,,,0.00,meteohub,2013-02-03 15:36:00,
2013-02-03 09:41:00,40.5,25.2,30.46,ENE,73,7.0,10.0,54,0.00,,,0.00,meteohub,2013-02-03 15:41:00,
2013-02-03 09:46:00,40.6,25.3,30.46,East,86,4.0,9.0,54,0.00,,,0.00,meteohub,2013-02-03 15:46:00,
2013-02-03 09:52:00,40.8,25.5,30.45,ESE,117,3.0,9.0,54,0.00,,,0.00,meteohub,2013-02-03 15:52:00,
2013-02-03 09:57:00,41.4,25.0,30.45,ESE,108,4.0,9.0,52,0.00,,,0.00,meteohub,2013-02-03 15:57:00,
2013-02-03 10:02:00,41.5,24.8,30.45,East,86,9.0,9.0,51,0.00,,,0.00,meteohub,2013-02-03 16:02:00,
2013-02-03 10:07:00,41.5,24.8,30.45,East,84,7.0,10.0,51,0.00,,,0.00,meteohub,2013-02-03 16:07:00,
2013-02-03 10:12:00,41.5,24.8,30.45,ENE,75,8.0,11.0,51,0.00,,,0.00,meteohub,2013-02-03 16:12:00,
2013-02-03 10:17:00,41.7,23.9,30.45,East,80,9.0,11.0,49,0.00,,,0.00,meteohub,2013-02-03 16:17:00,
2013-02-03 10:22:00,42.1,23.7,30.45,East,96,8.0,11.0,48,0.00,,,0.00,meteohub,2013-02-03 16:22:00,
2013-02-03 10:27:00,42.4,24.1,30.45,East,79,4.0,11.0,48,0.00,,,0.00,meteohub,2013-02-03 16:27:00,
2013-02-03 10:32:00,42.8,23.0,30.45,East,101,9.0,13.0,45,0.00,,,0.00,meteohub,2013-02-03 16:32:00,
2013-02-03 10:37:00,43.0,23.2,30.44,East,101,6.0,13.0,45,0.00,,,0.00,meteohub,2013-02-03 16:37:00,
2013-02-03 10:42:00,43.2,23.2,30.44,East,85,6.0,11.0,45,0.00,,,0.00,meteohub,2013-02-03 16:42:00,
2013-02-03 10:47:00,43.3,22.8,30.44,East,89,9.0,12.0,44,0.00,,,0.00,meteohub,2013-02-03 16:47:00,
2013-02-03 10:52:00,43.5,22.5,30.44,ESE,102,6.0,12.0,43,0.00,,,0.00,meteohub,2013-02-03 16:52:00,
2013-02-03 10:57:00,43.9,22.8,30.43,ESE,105,6.0,12.0,43,0.00,,,0.00,meteohub,2013-02-03 16:57:00,
2013-02-03 11:02:00,44.8,23.0,30.43,ESE,103,10.0,10.0,42,0.00,,,0.00,meteohub,2013-02-03 17:02:00,
2013-02-03 11:07:00,45.0,22.6,30.43,NE,48,6.0,10.0,41,0.00,,,0.00,meteohub,2013-02-03 17:07:00,
2013-02-03 11:12:00,45.1,22.3,30.43,East,98,6.0,10.0,40,0.00,,,0.00,meteohub,2013-02-03 17:12:00,
2013-02-03 11:17:00,45.3,23.0,30.42,ESE,115,7.0,11.0,41,0.00,,,0.00,meteohub,2013-02-03 17:17:00,
2013-02-03 11:22:00,45.5,22.6,30.43,East,101,9.0,11.0,40,0.00,,,0.00,meteohub,2013-02-03 17:22:00,
2013-02-03 11:27:00,46.0,23.0,30.42,ESE,116,9.0,11.0,40,0.00,,,0.00,meteohub,2013-02-03 17:27:00,
2013-02-03 11:32:00,46.4,22.1,30.41,ESE,115,11.0,12.0,38,0.00,,,0.00,meteohub,2013-02-03 17:32:00,
2013-02-03 11:37:00,46.6,22.3,30.41,East,101,7.0,12.0,38,0.00,,,0.00,meteohub,2013-02-03 17:37:00,
2013-02-03 11:42:00,46.8,22.5,30.41,ESE,109,7.0,12.0,38,0.00,,,0.00,meteohub,2013-02-03 17:42:00,
2013-02-03 11:47:00,47.1,22.1,30.41,East,96,7.0,12.0,37,0.00,,,0.00,meteohub,2013-02-03 17:47:00,
2013-02-03 11:52:00,47.5,21.9,30.41,SE,140,9.0,12.0,36,0.00,,,0.00,meteohub,2013-02-03 17:52:00,
2013-02-03 11:57:00,48.0,20.3,30.40,ESE,108,11.0,12.0,33,0.00,,,0.00,meteohub,2013-02-03 17:57:00,
2013-02-03 12:02:00,48.0,21.7,30.40,SE,143,7.0,13.0,35,0.00,,,0.00,meteohub,2013-02-03 18:02:00,
2013-02-03 12:07:00,48.2,21.7,30.40,East,95,10.0,14.0,35,0.00,,,0.00,meteohub,2013-02-03 18:07:00,
2013-02-03 12:12:00,48.4,21.4,30.39,SE,129,6.0,14.0,34,0.00,,,0.00,meteohub,2013-02-03 18:12:00,
2013-02-03 12:17:00,48.7,21.6,30.38,SE,127,11.0,14.0,34,0.00,,,0.00,meteohub,2013-02-03 18:17:00,
2013-02-03 12:22:00,48.6,21.4,30.38,East,99,14.0,14.0,34,0.00,,,0.00,meteohub,2013-02-03 18:22:00,
2013-02-03 12:27:00,48.9,21.0,30.38,SSE,152,7.0,15.0,33,0.00,,,0.00,meteohub,2013-02-03 18:27:00,
2013-02-03 12:32:00,49.1,21.9,30.37,ESE,108,9.0,15.0,34,0.00,,,0.00,meteohub,2013-02-03 18:32:00,
2013-02-03 12:37:00,49.3,22.1,30.36,SE,142,8.0,15.0,34,0.00,,,0.00,meteohub,2013-02-03 18:37:00,
2013-02-03 12:42:00,49.6,22.5,30.36,SSE,155,12.0,15.0,34,0.00,,,0.00,meteohub,2013-02-03 18:42:00,
2013-02-03 12:47:00,49.8,22.6,30.35,South,170,10.0,15.0,34,0.00,,,0.00,meteohub,2013-02-03 18:47:00,
2013-02-03 12:52:00,49.8,22.6,30.35,WSW,239,6.0,15.0,34,0.00,,,0.00,meteohub,2013-02-03 18:52:00,
2013-02-03 12:57:00,50.0,22.6,30.34,SE,139,8.0,14.0,34,0.00,,,0.00,meteohub,2013-02-03 18:57:00,
2013-02-03 13:02:00,50.0,22.6,30.34,SE,142,7.0,14.0,34,0.00,,,0.00,meteohub,2013-02-03 19:02:00,
2013-02-03 13:07:00,50.2,23.5,30.33,SSE,160,7.0,14.0,35,0.00,,,0.00,meteohub,2013-02-03 19:07:00,
2013-02-03 13:12:00,50.7,23.4,30.33,South,187,8.0,14.0,34,0.00,,,0.00,meteohub,2013-02-03 19:12:00,
2013-02-03 13:17:00,51.3,23.2,30.33,SSE,158,8.0,14.0,33,0.00,,,0.00,meteohub,2013-02-03 19:17:00,
2013-02-03 13:22:00,51.6,23.4,30.32,SSW,208,8.0,13.0,33,0.00,,,0.00,meteohub,2013-02-03 19:22:00,
2013-02-03 13:27:00,52.0,23.0,30.32,SE,124,8.0,16.0,32,0.00,,,0.00,meteohub,2013-02-03 19:27:00,
2013-02-03 13:32:00,52.0,23.7,30.31,SSE,168,6.0,17.0,33,0.00,,,0.00,meteohub,2013-02-03 19:32:00,
2013-02-03 13:37:00,52.3,23.4,30.31,SE,142,9.0,17.0,32,0.00,,,0.00,meteohub,2013-02-03 19:37:00,
2013-02-03 13:42:00,52.5,23.5,30.30,South,186,5.0,18.0,32,0.00,,,0.00,meteohub,2013-02-03 19:42:00,
2013-02-03 13:47:00,52.9,23.0,30.30,SSE,153,12.0,18.0,31,0.00,,,0.00,meteohub,2013-02-03 19:47:00,
2013-02-03 13:52:00,53.2,23.4,30.29,SSE,160,5.0,16.0,31,0.00,,,0.00,meteohub,2013-02-03 19:52:00,
2013-02-03 13:57:00,53.4,22.8,30.29,SSW,195,13.0,16.0,30,0.00,,,0.00,meteohub,2013-02-03 19:57:00,
2013-02-03 14:02:00,53.4,23.5,30.28,SSW,193,5.0,21.0,31,0.00,,,0.00,meteohub,2013-02-03 20:02:00,
2013-02-03 14:07:00,53.6,22.8,30.28,SW,229,9.0,21.0,30,0.00,,,0.00,meteohub,2013-02-03 20:07:00,
2013-02-03 14:12:00,54.0,24.1,30.27,SSW,193,6.0,21.0,31,0.00,,,0.00,meteohub,2013-02-03 20:12:00,
2013-02-03 14:17:00,54.1,23.4,30.27,South,176,9.0,17.0,30,0.00,,,0.00,meteohub,2013-02-03 20:17:00,
2013-02-03 14:22:00,54.1,23.4,30.27,SE,127,10.0,17.0,30,0.00,,,0.00,meteohub,2013-02-03 20:22:00,
2013-02-03 14:27:00,54.1,23.4,30.26,SSE,167,10.0,19.0,30,0.00,,,0.00,meteohub,2013-02-03 20:27:00,
2013-02-03 14:32:00,54.3,23.5,30.26,SSW,203,8.0,21.0,30,0.00,,,0.00,meteohub,2013-02-03 20:32:00,
2013-02-03 14:37:00,54.7,23.0,30.25,SSW,200,9.0,21.0,29,0.00,,,0.00,meteohub,2013-02-03 20:37:00,
2013-02-03 14:42:00,54.7,22.3,30.25,SE,146,7.0,21.0,28,0.00,,,0.00,meteohub,2013-02-03 20:42:00,
2013-02-03 14:47:00,55.0,22.5,30.25,SSW,212,8.0,20.0,28,0.00,,,0.00,meteohub,2013-02-03 20:47:00,
2013-02-03 14:52:00,55.0,21.7,30.24,South,177,9.0,20.0,27,0.00,,,0.00,meteohub,2013-02-03 20:52:00,
2013-02-03 14:57:00,54.9,22.3,30.24,SSE,152,17.0,19.0,28,0.00,,,0.00,meteohub,2013-02-03 20:57:00,
2013-02-03 15:02:00,55.0,22.5,30.24,SSW,205,12.0,21.0,28,0.00,,,0.00,meteohub,2013-02-03 21:02:00,
2013-02-03 15:07:00,55.2,22.6,30.23,SSE,155,14.0,21.0,28,0.00,,,0.00,meteohub,2013-02-03 21:07:00,
2013-02-03 15:12:00,55.4,22.8,30.23,SE,146,8.0,19.0,28,0.00,,,0.00,meteohub,2013-02-03 21:12:00,
2013-02-03 15:17:00,55.6,23.0,30.23,South,181,16.0,19.0,28,0.00,,,0.00,meteohub,2013-02-03 21:17:00,
2013-02-03 15:22:00,55.6,23.0,30.23,SSW,212,10.0,19.0,28,0.00,,,0.00,meteohub,2013-02-03 21:22:00,
2013-02-03 15:27:00,55.6,23.0,30.22,SSW,203,7.0,18.0,28,0.00,,,0.00,meteohub,2013-02-03 21:27:00,
2013-02-03 15:32:00,55.6,23.0,30.22,South,179,14.0,21.0,28,0.00,,,0.00,meteohub,2013-02-03 21:32:00,
2013-02-03 15:37:00,55.4,22.8,30.22,SSW,212,13.0,21.0,28,0.00,,,0.00,meteohub,2013-02-03 21:37:00,
2013-02-03 15:42:00,55.2,23.5,30.22,SSE,163,17.0,21.0,29,0.00,,,0.00,meteohub,2013-02-03 21:42:00,
2013-02-03 15:47:00,55.8,23.9,30.22,SW,226,8.0,24.0,29,0.00,,,0.00,meteohub,2013-02-03 21:47:00,
2013-02-03 15:52:00,55.8,23.9,30.22,South,183,15.0,24.0,29,0.00,,,0.00,meteohub,2013-02-03 21:52:00,
2013-02-03 15:57:00,55.9,24.1,30.22,SW,215,6.0,20.0,29,0.00,,,0.00,meteohub,2013-02-03 21:57:00,
2013-02-03 16:02:00,55.8,23.9,30.22,SSW,203,7.0,20.0,29,0.00,,,0.00,meteohub,2013-02-03 22:02:00,
2013-02-03 16:07:00,55.8,23.9,30.21,SE,129,14.0,20.0,29,0.00,,,0.00,meteohub,2013-02-03 22:07:00,
2013-02-03 16:13:00,55.8,23.9,30.21,SW,229,17.0,20.0,29,0.00,,,0.00,meteohub,2013-02-03 22:13:00,
2013-02-03 16:18:00,55.8,23.9,30.20,South,170,13.0,21.0,29,0.00,,,0.00,meteohub,2013-02-03 22:18:00,
2013-02-03 16:23:00,55.6,23.9,30.20,SSE,167,18.0,23.0,29,0.00,,,0.00,meteohub,2013-02-03 22:23:00,
2013-02-03 16:28:00,55.6,23.9,30.20,SSW,205,10.0,23.0,29,0.00,,,0.00,meteohub,2013-02-03 22:28:00,
2013-02-03 16:33:00,55.4,24.4,30.19,SSE,163,15.0,23.0,30,0.00,,,0.00,meteohub,2013-02-03 22:33:00,
2013-02-03 16:38:00,55.2,24.3,30.19,South,182,11.0,22.0,30,0.00,,,0.00,meteohub,2013-02-03 22:38:00,
2013-02-03 16:43:00,55.4,24.4,30.19,SSE,155,10.0,17.0,30,0.00,,,0.00,meteohub,2013-02-03 22:43:00,
2013-02-03 16:48:00,55.2,24.3,30.19,SE,133,15.0,19.0,30,0.00,,,0.00,meteohub,2013-02-03 22:48:00,
2013-02-03 16:53:00,55.2,25.2,30.18,South,183,8.0,22.0,31,0.00,,,0.00,meteohub,2013-02-03 22:53:00,
2013-02-03 16:58:00,55.2,25.2,30.17,SSW,203,12.0,22.0,31,0.00,,,0.00,meteohub,2013-02-03 22:58:00,
2013-02-03 17:03:00,55.6,25.3,30.17,SE,139,11.0,22.0,31,0.00,,,0.00,meteohub,2013-02-03 23:03:00,
2013-02-03 17:08:00,55.4,25.3,30.17,SSE,155,8.0,18.0,31,0.00,,,0.00,meteohub,2013-02-03 23:08:00,
2013-02-03 17:13:00,55.2,25.2,30.17,SSE,167,11.0,18.0,31,0.00,,,0.00,meteohub,2013-02-03 23:13:00,
2013-02-03 17:18:00,55.0,25.7,30.17,SSW,197,11.0,20.0,32,0.00,,,0.00,meteohub,2013-02-03 23:18:00,
2013-02-03 17:23:00,55.0,25.0,30.16,SE,142,14.0,21.0,31,0.00,,,0.00,meteohub,2013-02-03 23:23:00,
2013-02-03 17:28:00,54.7,25.3,30.16,South,187,15.0,21.0,32,0.00,,,0.00,meteohub,2013-02-03 23:28:00,
2013-02-03 17:33:00,54.5,25.2,30.16,SSE,150,12.0,21.0,32,0.00,,,0.00,meteohub,2013-02-03 23:33:00,
2013-02-03 17:38:00,54.3,25.2,30.16,SE,145,10.0,18.0,32,0.00,,,0.00,meteohub,2013-02-03 23:38:00,
2013-02-03 17:43:00,54.0,25.5,30.15,SSE,153,8.0,18.0,33,0.00,,,0.00,meteohub,2013-02-03 23:43:00,
2013-02-03 17:48:00,53.8,25.3,30.15,South,173,10.0,18.0,33,0.00,,,0.00,meteohub,2013-02-03 23:48:00,
2013-02-03 17:53:00,53.6,25.2,30.15,SSE,153,8.0,16.0,33,0.00,,,0.00,meteohub,2013-02-03 23:53:00,
2013-02-03 17:58:00,53.4,25.7,30.15,SSE,165,12.0,16.0,34,0.00,,,0.00,meteohub,2013-02-03 23:58:00,
2013-02-03 18:03:00,53.2,25.5,30.15,SE,145,9.0,16.0,34,0.00,,,0.00,meteohub,2013-02-04 00:03:00,
2013-02-03 18:08:00,53.1,25.3,30.15,SSE,151,10.0,15.0,34,0.00,,,0.00,meteohub,2013-02-04 00:08:00,
2013-02-03 18:13:00,52.9,25.9,30.15,South,183,10.0,15.0,35,0.00,,,0.00,meteohub,2013-02-04 00:13:00,
2013-02-03 18:18:00,52.5,25.7,30.14,SSE,158,7.0,15.0,35,0.00,,,0.00,meteohub,2013-02-04 00:18:00,
2013-02-03 18:23:00,52.3,26.2,30.14,SSE,168,12.0,13.0,36,0.00,,,0.00,meteohub,2013-02-04 00:23:00,
2013-02-03 18:28:00,52.2,26.1,30.14,SE,136,12.0,13.0,36,0.00,,,0.00,meteohub,2013-02-04 00:28:00,
2013-02-03 18:33:00,52.0,25.9,30.14,South,174,12.0,13.0,36,0.00,,,0.00,meteohub,2013-02-04 00:33:00,
2013-02-03 18:38:00,51.8,26.4,30.14,SE,142,8.0,15.0,37,0.00,,,0.00,meteohub,2013-02-04 00:38:00,
2013-02-03 18:43:00,51.6,26.2,30.13,SSW,198,8.0,15.0,37,0.00,,,0.00,meteohub,2013-02-04 00:43:00,
2013-02-03 18:48:00,51.6,26.2,30.13,SSE,149,10.0,16.0,37,0.00,,,0.00,meteohub,2013-02-04 00:48:00,
2013-02-03 18:53:00,51.6,26.8,30.13,SSE,156,9.0,16.0,38,0.00,,,0.00,meteohub,2013-02-04 00:53:00,
2013-02-03 18:58:00,51.6,26.8,30.13,SSE,158,13.0,16.0,38,0.00,,,0.00,meteohub,2013-02-04 00:58:00,
2013-02-03 19:03:00,51.6,26.8,30.13,SE,134,10.0,15.0,38,0.00,,,0.00,meteohub,2013-02-04 01:03:00,
2013-02-03 19:08:00,51.4,26.6,30.13,SE,143,7.0,15.0,38,0.00,,,0.00,meteohub,2013-02-04 01:08:00,
2013-02-03 19:13:00,51.1,27.0,30.13,SSE,165,6.0,15.0,39,0.00,,,0.00,meteohub,2013-02-04 01:13:00,
2013-02-03 19:18:00,50.9,26.8,30.12,SSE,159,12.0,14.0,39,0.00,,,0.00,meteohub,2013-02-04 01:18:00,
2013-02-03 19:23:00,50.7,26.6,30.12,SSE,155,8.0,15.0,39,0.00,,,0.00,meteohub,2013-02-04 01:23:00,
2013-02-03 19:28:00,50.5,27.1,30.12,SSE,149,3.0,17.0,40,0.00,,,0.00,meteohub,2013-02-04 01:28:00,
2013-02-03 19:33:00,50.5,27.1,30.12,SE,124,10.0,17.0,40,0.00,,,0.00,meteohub,2013-02-04 01:33:00,
2013-02-03 19:38:00,50.5,27.1,30.12,SE,129,11.0,17.0,40,0.00,,,0.00,meteohub,2013-02-04 01:38:00,
2013-02-03 19:43:00,50.5,27.1,30.12,SSE,153,6.0,16.0,40,0.00,,,0.00,meteohub,2013-02-04 01:43:00,
2013-02-03 19:48:00,50.4,27.0,30.11,SSE,155,8.0,18.0,40,0.00,,,0.00,meteohub,2013-02-04 01:48:00,
2013-02-03 19:53:00,50.4,27.5,30.11,SE,135,10.0,18.0,41,0.00,,,0.00,meteohub,2013-02-04 01:53:00,
2013-02-03 19:58:00,50.4,27.5,30.11,SSE,150,6.0,15.0,41,0.00,,,0.00,meteohub,2013-02-04 01:58:00,
2013-02-03 20:03:00,50.4,27.5,30.11,SE,143,6.0,15.0,41,0.00,,,0.00,meteohub,2013-02-04 02:03:00,
2013-02-03 20:08:00,50.2,27.3,30.11,SSW,208,9.0,15.0,41,0.00,,,0.00,meteohub,2013-02-04 02:08:00,
2013-02-03 20:13:00,50.2,27.3,30.11,SE,143,9.0,16.0,41,0.00,,,0.00,meteohub,2013-02-04 02:13:00,
2013-02-03 20:18:00,50.2,28.0,30.11,SSE,147,13.0,16.0,42,0.00,,,0.00,meteohub,2013-02-04 02:18:00,
2013-02-03 20:23:00,50.2,28.0,30.10,SSE,153,6.0,16.0,42,0.00,,,0.00,meteohub,2013-02-04 02:23:00,
2013-02-03 20:28:00,50.2,28.0,30.10,South,190,12.0,16.0,42,0.00,,,0.00,meteohub,2013-02-04 02:28:00,
2013-02-03 20:33:00,50.2,28.0,30.10,SSE,150,14.0,19.0,42,0.00,,,0.00,meteohub,2013-02-04 02:33:00,
2013-02-03 20:39:00,50.2,28.0,30.10,SSW,195,11.0,19.0,42,0.00,,,0.00,meteohub,2013-02-04 02:39:00,
2013-02-03 20:44:00,50.2,28.0,30.09,South,180,11.0,19.0,42,0.00,,,0.00,meteohub,2013-02-04 02:44:00,
2013-02-03 20:49:00,50.2,28.0,30.09,SSW,198,8.0,17.0,42,0.00,,,0.00,meteohub,2013-02-04 02:49:00,
2013-02-03 20:54:00,50.2,28.6,30.09,SSE,155,10.0,17.0,43,0.00,,,0.00,meteohub,2013-02-04 02:54:00,
2013-02-03 20:59:00,50.0,28.4,30.09,SSE,147,13.0,18.0,43,0.00,,,0.00,meteohub,2013-02-04 02:59:00,
2013-02-03 21:04:00,49.8,28.2,30.09,South,171,11.0,20.0,43,0.00,,,0.00,meteohub,2013-02-04 03:04:00,
2013-02-03 21:09:00,49.8,28.2,30.09,SSE,153,6.0,20.0,43,0.00,,,0.00,meteohub,2013-02-04 03:09:00,
2013-02-03 21:14:00,49.8,28.8,30.08,SSW,198,9.0,20.0,44,0.00,,,0.00,meteohub,2013-02-04 03:14:00,
2013-02-03 21:19:00,49.6,28.6,30.08,SE,138,16.0,18.0,44,0.00,,,0.00,meteohub,2013-02-04 03:19:00,
2013-02-03 21:24:00,49.6,28.6,30.08,SSE,150,10.0,19.0,44,0.00,,,0.00,meteohub,2013-02-04 03:24:00,
2013-02-03 21:29:00,49.5,28.4,30.08,SE,143,13.0,19.0,44,0.00,,,0.00,meteohub,2013-02-04 03:29:00,
2013-02-03 21:34:00,49.3,28.8,30.08,SSE,155,8.0,19.0,45,0.00,,,0.00,meteohub,2013-02-04 03:34:00,
2013-02-03 21:39:00,49.3,28.8,30.07,SSE,150,14.0,17.0,45,0.00,,,0.00,meteohub,2013-02-04 03:39:00,
2013-02-03 21:44:00,49.3,28.8,30.07,SSW,201,8.0,17.0,45,0.00,,,0.00,meteohub,2013-02-04 03:44:00,
2013-02-03 21:49:00,48.9,29.1,30.07,SSW,206,12.0,19.0,46,0.00,,,0.00,meteohub,2013-02-04 03:49:00,
2013-02-03 21:54:00,49.1,29.1,30.07,SSE,155,7.0,19.0,46,0.00,,,0.00,meteohub,2013-02-04 03:54:00,
2013-02-03 21:59:00,49.3,29.3,30.07,South,188,9.0,19.0,46,0.00,,,0.00,meteohub,2013-02-04 03:59:00,
2013-02-03 22:04:00,49.3,29.3,30.07,SSW,205,7.0,17.0,46,0.00,,,0.00,meteohub,2013-02-04 04:04:00,
2013-02-03 22:09:00,49.5,29.5,30.06,SSW,205,7.0,17.0,46,0.00,,,0.00,meteohub,2013-02-04 04:09:00,
2013-02-03 22:14:00,49.6,29.7,30.06,SE,132,10.0,17.0,46,0.00,,,0.00,meteohub,2013-02-04 04:14:00,
2013-02-03 22:19:00,49.8,29.3,30.06,SSW,203,13.0,15.0,45,0.00,,,0.00,meteohub,2013-02-04 04:19:00,
2013-02-03 22:24:00,50.0,29.5,30.06,SSE,149,10.0,15.0,45,0.00,,,0.00,meteohub,2013-02-04 04:24:00,
2013-02-03 22:29:00,50.0,29.5,30.06,SSE,153,15.0,16.0,45,0.00,,,0.00,meteohub,2013-02-04 04:29:00,
2013-02-03 22:34:00,50.0,29.5,30.05,SSW,195,11.0,20.0,45,0.00,,,0.00,meteohub,2013-02-04 04:34:00,
2013-02-03 22:39:00,49.8,29.8,30.05,SSE,165,7.0,20.0,46,0.00,,,0.00,meteohub,2013-02-04 04:39:00,
2013-02-03 22:44:00,49.8,29.3,30.05,South,173,12.0,20.0,45,0.00,,,0.00,meteohub,2013-02-04 04:44:00,
2013-02-03 22:49:00,50.0,29.5,30.05,SSW,211,8.0,16.0,45,0.00,,,0.00,meteohub,2013-02-04 04:49:00,
2013-02-03 22:54:00,50.0,30.0,30.04,SSW,201,13.0,16.0,46,0.00,,,0.00,meteohub,2013-02-04 04:54:00,
2013-02-03 22:59:00,49.8,29.8,30.04,SSE,163,11.0,17.0,46,0.00,,,0.00,meteohub,2013-02-04 04:59:00,
2013-02-03 23:02:00,49.8,29.8,30.04,SSW,201,10.0,17.0,46,0.00,,,0.00,meteohub,2013-02-04 05:02:00,
2013-02-03 23:03:00,49.8,29.8,30.04,SSW,198,13.0,17.0,46,0.00,,,0.00,meteohub,2013-02-04 05:03:00,
2013-02-03 23:08:00,49.8,29.8,30.04,SW,215,8.0,17.0,46,0.00,,,0.00,meteohub,2013-02-04 05:08:00,
2013-02-03 23:13:00,49.8,29.8,30.04,South,180,10.0,17.0,46,0.00,,,0.00,meteohub,2013-02-04 05:13:00,
2013-02-03 23:18:00,49.6,29.7,30.03,South,174,11.0,15.0,46,0.00,,,0.00,meteohub,2013-02-04 05:18:00,
2013-02-03 23:23:00,49.6,29.7,30.04,SSE,158,9.0,15.0,46,0.00,,,0.00,meteohub,2013-02-04 05:23:00,
2013-02-03 23:28:00,49.6,29.7,30.03,SSE,154,5.0,17.0,46,0.00,,,0.00,meteohub,2013-02-04 05:28:00,
2013-02-03 23:33:00,49.6,29.7,30.03,SSW,206,9.0,17.0,46,0.00,,,0.00,meteohub,2013-02-04 05:33:00,
2013-02-03 23:38:00,49.6,30.2,30.03,SSW,206,6.0,16.0,47,0.00,,,0.00,meteohub,2013-02-04 05:38:00,
2013-02-03 23:43:00,49.6,30.2,30.03,SSW,208,5.0,16.0,47,0.00,,,0.00,meteohub,2013-02-04 05:43:00,
2013-02-03 23:48:00,49.6,30.2,30.03,SE,143,11.0,16.0,47,0.00,,,0.00,meteohub,2013-02-04 05:48:00,
2013-02-03 23:53:00,49.5,30.0,30.03,SSW,208,7.0,13.0,47,0.00,,,0.00,meteohub,2013-02-04 05:53:00,
2013-02-03 23:58:00,49.5,30.0,30.03,SSE,162,9.0,13.0,47,0.00,,,0.00,meteohub,2013-02-04 05:58:00,